#timestamp,LO_Frequency,Hit,StdDev 
1611590415.3,286046998.4,N
1611590435.1,286046998.4,N
1611590455.9,286046998.9,N
1611590475.7,286046998.1,N
1611590495.6,286047000.6,N
1611590515.4,286047000.5,N
1611590535.2,286047002.8,N
1611590555.1,286047002.1,N
1611590556.0,286047002.1,N
1611590575.8,286047001.2,N
1611590595.6,286046999.3,N
1611590615.5,286046996.5,N
1611590635.3,286046996.5,N
1611590655.2,286046998.3,N
1611590675.9,286047000.7,N
1611590695.7,286046998.7,N
1611590715.6,286046999.6,N
1611590735.4,286046998.6,N
1611590755.2,286046999.7,N
1611590775.1,286047004.4,N
1611590776.0,286047004.4,N
1611590795.8,286047004.2,N
1611590815.7,286047003.2,N
1611590835.5,286047004.0,N
1611590855.3,286047001.4,N
1611590875.2,286047004.0,N
1611590895.0,286047002.3,N
1611590895.9,286047002.3,N
1611590915.8,286047000.0,N
1611590935.6,286047002.4,N
1611590955.4,286046999.8,N
1611590975.3,286047000.6,N
1611590995.1,286047000.5,N
1611591015.8,286047002.3,N
1611591035.7,286047003.9,N
1611591055.5,286047001.4,N
1611591075.4,286047002.2,N
1611591095.2,286047000.5,N
1611591115.0,286047001.0,N
1611591115.9,286047001.0,N
1611591135.8,286047000.5,N
1611591155.6,286047000.5,N
1611591175.5,286047000.7,N
1611591195.3,286046998.5,N
1611591215.1,286047000.3,N
1611591235.9,286047000.3,N
1611591255.7,286046999.9,N
1611591275.6,286047000.0,N
1611591295.4,286047000.3,N
1611591315.2,286046999.7,N
1611591335.1,286047003.8,N
1611591336.0,286047003.8,N
1611591355.8,286047003.8,N
1611591375.7,286047003.9,N
1611591395.5,286047001.7,N
1611591415.3,286047004.1,N
1611591435.2,286047003.4,N
1611591455.9,286047004.3,N
1611591475.7,286047001.4,N
1611591495.6,286047002.7,N
1611591515.4,286046999.7,N
1611591535.3,286047003.5,N
1611591555.1,286047004.3,N
1611591556.0,286047004.3,N
1611591575.8,286047003.7,N
1611591595.7,286047003.8,N
1611591615.5,286047003.1,N
1611591635.3,286047003.8,N
1611591655.2,286047001.4,N
1611591675.0,286047001.8,N
1611591675.9,286047001.8,N
1611591695.8,286047003.4,N
1611591715.6,286047003.4,N
1611591735.4,286047003.3,N
1611591755.3,286047003.4,N
1611591775.1,286047003.1,N
1611591795.9,286047003.4,N
1611591815.7,286047003.3,N
1611591835.5,286047003.5,N
1611591855.4,286047003.5,N
1611591875.2,286047005.6,Y
1611591895.1,286047001.7,P
1611591896.0,286047001.7,N
1611591915.8,286047001.7,N
1611591935.6,286046999.7,N
1611591955.5,286046999.7,N
1611591975.3,286047000.5,N
1611591995.2,286047001.2,N
1611592015.9,286046999.7,N
1611592035.7,286047001.9,N
1611592055.6,286047002.4,N
1611592075.4,286047002.8,N
1611592095.2,286047001.3,N
1611592115.1,286047001.7,N
1611592116.0,286047001.7,N
1611592135.8,286047002.0,N
1611592155.7,286047004.1,Y
1611592175.5,286047002.2,P
1611592195.3,286047000.1,N
1611592215.2,286047000.9,N
1611592235.0,286047002.2,N
1611592235.9,286047002.2,N
1611592255.8,286047004.2,Y
1611592275.6,286047001.3,P
1611592295.4,286047001.7,P
1611592315.3,286047002.2,P
1611592335.1,286046999.7,N
1611592355.8,286047002.4,N
1611592375.7,286047000.9,N
1611592395.5,286047000.7,N
1611592415.4,286046998.4,N
1611592435.2,286046999.0,N
1611592455.0,286047001.2,N
1611592455.9,286047001.2,N
1611592475.8,286047001.1,N
1611592495.6,286047000.5,N
1611592515.5,286047001.2,N
1611592535.3,286047000.4,N
1611592555.1,286047000.4,N
1611592575.9,286046998.9,N
1611592595.7,286046999.5,N
1611592615.5,286046998.1,N
1611592635.4,286047001.0,N
1611592655.2,286047000.9,N
1611592675.1,286047000.4,N
1611592676.0,286047000.4,N
1611592695.8,286047000.4,N
1611592715.6,286047001.0,N
1611592735.5,286047000.3,N
1611592755.3,286047000.6,N
1611592775.2,286047000.6,N
1611592795.9,286046999.8,N
1611592815.7,286047002.0,N
1611592835.6,286047003.9,Y
1611592855.4,286047003.6,P
1611592875.2,286047003.7,N
1611592895.1,286047003.3,N
1611592896.0,286047003.3,N
1611592915.8,286047006.0,Y
1611592935.7,286047002.6,P
1611592955.5,286047002.7,P
1611592975.3,286047000.6,P
1611592995.2,286047000.9,N
1611593015.0,286047000.3,N
1611593015.9,286047000.3,N
1611593035.8,286047002.7,N
1611593055.6,286047002.4,N
1611593075.4,286047000.0,N
1611593095.3,286046999.8,N
1611593115.1,286047002.8,N
1611593135.8,286047000.4,N
1611593155.7,286046999.7,N
1611593175.5,286047000.6,N
1611593195.4,286046998.2,N
1611593215.2,286047000.8,N
1611593235.0,286047000.1,N
1611593235.9,286047000.1,N
1611593255.8,286047000.0,N
1611593275.6,286046998.1,N
1611593295.5,286047000.8,N
1611593315.3,286047000.8,N
1611593335.1,286047000.4,N
1611593355.9,286047000.6,N
1611593375.7,286046999.5,N
1611593395.5,286046998.4,N
1611593415.4,286047001.0,N
1611593435.2,286046998.5,N
1611593455.1,286047001.1,N
1611593456.0,286047001.1,N
1611593475.8,286047000.0,N
1611593495.6,286047000.7,N
1611593515.5,286047000.0,N
1611593535.3,286047002.6,N
1611593555.1,286047001.3,N
1611593575.9,286047003.9,Y
1611593595.7,286047002.6,P
1611593615.6,286047002.6,N
1611593635.4,286047002.1,N
1611593655.2,286047000.1,N
1611593675.1,286047000.9,N
1611593676.0,286047000.9,N
1611593695.8,286047001.0,N
1611593715.7,286047000.6,N
1611593735.5,286047000.5,N
1611593755.3,286047000.7,N
1611593775.2,286047000.5,N
1611593795.0,286047001.8,N
1611593795.9,286047001.8,N
1611593815.8,286047003.9,Y
1611593835.6,286047002.0,P
1611593855.4,286047004.3,P
1611593875.3,286047005.4,P
1611593895.1,286047003.2,N
1611593915.8,286047004.2,N
1611593935.7,286047002.5,N
1611593955.5,286047000.0,N
1611593975.4,286047000.7,N
1611593995.2,286047000.3,N
